DW2489 Weather Reports


Display with metric or nautical units.
time (UTC)temp
F
wind
direction
speed
MPH
gust
MPH
rain 1hr
in
rain 24hr
in
rain mn
in
humidity
%
barometer
mb
20260904171003 80 6 5.0 16.0 0.00 0.00 0.00 1011.2
20260904170503 80 63 1.0 5.0 0.00 0.00 0.00 1011.1
20260904170003 80 42 0.0 8.0 0.00 0.00 0.00 1011.2
20260904165503 80 43 1.0 8.0 0.00 0.00 0.00 1011.2
20260904165048 80 350 3.0 8.0 0.00 0.00 0.00 1011.2
20260904164503 80 255 0.0 8.0 0.00 0.00 0.00 1011.2
20260904164003 80 245 2.0 8.0 0.00 0.00 0.00 1011.2
20260904163504 80 0 2.0 8.0 0.00 0.00 0.00 1011.5
20260904163003 81 39 3.0 8.0 0.00 0.00 0.00 1011.6
20260904162518 81 344 0.0 6.0 0.00 0.00 0.00 1011.7
20260904162003 81 14 2.0 6.0 0.00 0.00 0.00 1011.6
20260904161504 81 254 3.0 8.0 0.00 0.00 0.00 1011.8
20260904161003 80 42 2.0 8.0 0.00 0.00 0.00 1011.8
20260904160503 80 33 2.0 9.0 0.00 0.00 0.00 1011.6
20260904160004 80 33 2.0 9.0 0.00 0.00 0.00 1011.9
20260904155503 80 230 5.0 9.0 0.00 0.00 0.00 1012.0
20260904155003 80 243 6.0 11.0 0.00 0.00 0.00 1012.0
20260904154503 81 234 6.0 13.0 0.00 0.00 0.00 1012.2
20260904154003 81 248 2.0 14.0 0.00 0.00 0.00 1012.1
20260904153503 80 246 1.0 14.0 0.00 0.00 0.00 1012.0
20260904153048 79 281 0.0 16.0 0.00 0.00 0.00 1012.0
20260904152519 80 282 1.0 16.0 0.00 0.00 0.00 1012.1
20260904152004 81 256 7.0 9.0 0.00 0.00 0.00 1012.3
20260904151504 81 269 1.0 6.0 0.00 0.00 0.00 1012.3
20260904151003 81 277 2.0 6.0 0.00 0.00 0.00 1012.2
20260904150518 81 259 3.0 8.0 0.00 0.00 0.00 1012.2
20260904150033 80 46 0.0 8.0 0.00 0.00 0.00 1012.2
20260904145534 80 233 1.0 8.0 0.00 0.00 0.00 1012.3
20260904145033 80 1 0.0 6.0 0.00 0.00 0.00 1012.2
20260904144533 80 268 3.0 9.0 0.00 0.00 0.00 1012.3
20260904144003 79 259 0.0 9.0 0.00 0.00 0.00 1012.2
20260904143533 79 245 3.0 9.0 0.00 0.00 0.00 1012.2
20260904143103 79 258 2.0 8.0 0.00 0.00 0.00 1012.3
20260904142534 79 259 2.0 9.0 0.00 0.00 0.00 1012.2
20260904142049 79 263 3.0 9.0 0.00 0.00 0.00 1012.1
20260904141533 79 261 2.0 9.0 0.00 0.00 0.00 1012.2
20260904141118 79 327 3.0 6.0 0.00 0.00 0.00 1012.1
20260904140534 78 257 0.0 8.0 0.00 0.00 0.00 1012.1
20260904140034 78 271 1.0 8.0 0.00 0.00 0.00 1012.2
20260904135503 78 259 6.0 8.0 0.00 0.00 0.00 1012.1
20260904135048 77 259 2.0 6.0 0.00 0.00 0.00 1012.0
20260904134534 77 32 0.0 6.0 0.00 0.00 0.00 1012.2
20260904134003 76 247 3.0 6.0 0.00 0.00 0.00 1012.1
20260904133603 76 270 3.0 6.0 0.00 0.00 0.00 1012.3
20260904133049 76 275 0.0 5.0 0.00 0.00 0.00 1012.1
20260904132534 75 261 2.0 6.0 0.00 0.00 0.00 1012.2
20260904132033 74 15 0.0 6.0 0.00 0.00 0.00 1012.3
20260904131534 74 263 0.0 6.0 0.00 0.00 0.00 1012.3
20260904131003 73 258 2.0 6.0 0.00 0.00 0.00 1012.4
20260904130603 71 262 0.0 5.0 0.00 0.00 0.00 1012.3
20260904130033 70 262 1.0 6.0 0.00 0.00 0.00 1012.3
20260904125534 70 262 0.0 6.0 0.00 0.00 0.00 1012.3
20260904125033 69 302 0.0 5.0 0.00 0.00 0.00 1012.4
20260904124533 68 302 1.0 5.0 0.00 0.00 0.00 1012.3
20260904124003 67 302 1.0 5.0 0.00 0.00 0.00 1012.2
20260904123534 67 302 0.0 6.0 0.00 0.00 0.00 1012.3
20260904123034 66 302 3.0 6.0 0.00 0.00 0.00 1012.3
20260904122534 65 302 2.0 5.0 0.00 0.00 0.00 1012.4
20260904122034 64 302 2.0 3.0 0.00 0.00 0.00 1012.4
20260904121618 64 302 0.0 0.0 0.00 0.00 0.00 1012.4
20260904121033 64 302 0.0 0.0 0.00 0.00 0.00 1012.4
20260904120534 63 302 0.0 0.0 0.00 0.00 0.00 1012.4
20260904120033 63 302 0.0 0.0 0.00 0.00 0.00 1012.4
20260904115503 63 302 0.0 2.0 0.00 0.00 0.00 1012.3
20260904115033 62 302 0.0 2.0 0.00 0.00 0.00 1012.4
20260904114533 62 302 0.0 0.0 0.00 0.00 0.00 1012.3
20260904114003 61 302 0.0 0.0 0.00 0.00 0.00 1012.2
20260904113533 61 302 0.0 0.0 0.00 0.00 0.00 1012.1
20260904113033 60 302 0.0 0.0 0.00 0.00 0.00 1012.1
20260904112533 60 302 0.0 0.0 0.00 0.00 0.00 1012.0
20260904112003 60 302 0.0 0.0 0.00 0.00 0.00 1012.0
20260904111536 60 302 0.0 0.0 0.00 0.00 0.00 1012.0
20260904111033 60 302 0.0 0.0 0.00 0.00 0.00 1011.8
20260904110503 59 302 0.0 0.0 0.00 0.00 0.00 1011.8
20260904110118 59 302 0.0 0.0 0.00 0.00 0.00 1011.8
20260904105503 59 302 0.0 0.0 0.00 0.00 0.00 1011.9
20260904105003 59 302 0.0 0.0 0.00 0.00 0.00 1011.8
20260904104533 59 302 0.0 0.0 0.00 0.00 0.00 1011.6
20260904104033 59 302 0.0 0.0 0.00 0.00 0.00 1011.7
20260904103534 59 302 0.0 0.0 0.00 0.00 0.00 1011.7
20260904103034 59 302 0.0 0.0 0.00 0.00 0.00 1011.6
20260904102533 59 302 0.0 0.0 0.00 0.00 0.00 1011.5
20260904102035 59 302 0.0 3.0 0.00 0.00 0.00 1011.5
20260904101534 59 302 0.0 3.0 0.00 0.00 0.00 1011.4
20260904101034 59 302 1.0 3.0 0.00 0.00 0.00 1011.3
20260904100533 59 302 0.0 0.0 0.00 0.00 0.00 1011.4
20260904100033 60 302 0.0 0.0 0.00 0.00 0.00 1011.2
20260904095533 60 302 0.0 0.0 0.00 0.00 0.00 1011.3
20260904095033 60 302 0.0 0.0 0.00 0.00 0.00 1011.2
20260904094549 60 302 0.0 0.0 0.00 0.00 0.00 1011.2
20260904094033 60 302 0.0 0.0 0.00 0.00 0.00 1011.2
20260904093548 60 302 0.0 0.0 0.00 0.00 0.00 1011.1
20260904093133 60 302 0.0 0.0 0.00 0.00 0.00 1011.1
20260904092532 60 302 0.0 0.0 0.00 0.00 0.00 1011.1
20260904092033 60 302 0.0 0.0 0.00 0.00 0.00 1011.0
20260904091533 60 302 0.0 0.0 0.00 0.00 0.00 1011.0
20260904091033 61 302 0.0 0.0 0.00 0.00 0.00 1010.9
20260904090534 61 302 0.0 0.0 0.00 0.00 0.00 1010.8
20260904090034 61 302 0.0 3.0 0.00 0.00 0.00 1010.7
20260904085533 61 302 0.0 3.0 0.00 0.00 0.00 1010.8
20260904085032 61 302 2.0 3.0 0.00 0.00 0.00 1011.0
20260904084532 61 302 0.0 3.0 0.00 0.00 0.00 1010.9
20260904084033 61 302 0.0 5.0 0.00 0.00 0.00 1010.8
20260904083534 61 302 2.0 5.0 0.00 0.00 0.00 1010.7
20260904083033 61 302 2.0 3.0 0.00 0.00 0.00 1010.7
20260904082618 61 302 0.0 0.0 0.00 0.00 0.00 1010.6
20260904082048 61 302 0.0 0.0 0.00 0.00 0.00 1010.6
20260904081550 61 302 0.0 0.0 0.00 0.00 0.00 1010.7
20260904081032 61 302 0.0 0.0 0.00 0.00 0.00 1010.7
20260904080534 61 302 0.0 0.0 0.00 0.00 0.00 1010.8
20260904080034 61 302 0.0 0.0 0.00 0.00 0.00 1010.9
20260904075533 61 302 0.0 2.0 0.00 0.00 0.00 1010.8
20260904075033 61 302 0.0 2.0 0.00 0.00 0.00 1010.9
20260904074533 61 302 0.0 0.0 0.00 0.00 0.00 1010.9
20260904074033 61 302 0.0 0.0 0.00 0.00 0.00 1010.9
20260904073533 62 302 0.0 0.0 0.00 0.00 0.00 1010.9
20260904073033 62 302 0.0 0.0 0.00 0.00 0.00 1010.8
20260904072618 62 302 0.0 0.0 0.00 0.00 0.00 1010.9
20260904072033 62 302 0.0 0.0 0.00 0.00 0.00 1010.9
20260904071534 62 302 0.0 0.0 0.00 0.00 0.00 1011.0
20260904071048 62 302 0.0 0.0 0.00 0.00 0.00 1011.0
20260904070533 62 302 0.0 0.0 0.00 0.00 0.00 1011.2
20260904070033 62 302 0.0 0.0 0.00 0.00 0.00 1011.2
20260904065534 62 302 0.0 0.0 0.00 0.00 0.00 1011.1
20260904065048 62 302 0.0 0.0 0.00 0.00 0.00 1011.1
20260904064532 62 302 0.0 0.0 0.00 0.00 0.00 1011.2
20260904064033 63 302 0.0 0.0 0.00 0.00 0.00 1011.2
20260904063532 63 302 0.0 0.0 0.00 0.00 0.00 1011.2
20260904063033 63 302 0.0 0.0 0.00 0.00 0.00 1011.4
20260904062533 63 302 0.0 0.0 0.00 0.00 0.00 1011.2
20260904062033 63 302 0.0 0.0 0.00 0.00 0.00 1011.2
20260904061603 63 302 0.0 0.0 0.00 0.00 0.00 1011.2
20260904061032 63 302 0.0 0.0 0.00 0.00 0.00 1011.2
20260904060533 63 302 0.0 0.0 0.00 0.00 0.00 1011.3
20260904055533 64 302 0.0 0.0 0.00 0.00 0.00 1011.4
20260904055048 64 302 0.0 0.0 0.00 0.00 0.00 1011.4
20260904054548 64 302 0.0 0.0 0.00 0.00 0.00 1011.3
20260904054033 64 302 0.0 0.0 0.00 0.00 0.00 1011.3
20260904053534 64 302 0.0 0.0 0.00 0.00 0.00 1011.2
20260904053033 64 302 0.0 0.0 0.00 0.00 0.00 1011.2
20260904052532 65 302 0.0 0.0 0.00 0.00 0.00 1011.3
20260904052034 65 302 0.0 0.0 0.00 0.00 0.00 1011.2
20260904051533 65 302 0.0 5.0 0.00 0.00 0.00 1011.3
20260904051034 65 302 0.0 5.0 0.00 0.00 0.00 1011.4
20260904050549 65 302 0.0 5.0 0.00 0.00 0.00 1011.5
20260904050032 65 302 0.0 5.0 0.00 0.00 0.00 1011.5
20260904045532 65 302 1.0 5.0 0.00 0.00 0.00 1011.7
20260904045033 64 302 1.0 5.0 0.00 0.00 0.00 1011.7
20260904044533 64 302 1.0 5.0 0.00 0.00 0.00 1011.8
20260904044032 64 302 2.0 5.0 0.00 0.00 0.00 1012.0
20260904043532 64 302 0.0 5.0 0.00 0.00 0.00 1011.9
20260904043033 64 302 0.0 0.0 0.00 0.00 0.00 1012.0
20260904042533 64 302 0.0 0.0 0.00 0.00 0.00 1012.0
20260904042032 64 302 0.0 0.0 0.00 0.00 0.00 1011.9
20260904041533 64 302 0.0 0.0 0.00 0.00 0.00 1011.9
20260904041033 64 302 0.0 0.0 0.00 0.00 0.00 1011.8
20260904040532 65 302 0.0 0.0 0.00 0.00 0.00 1011.9
20260904040032 65 302 0.0 0.0 0.00 0.00 0.00 1011.8
20260904035534 65 302 0.0 0.0 0.00 0.00 0.00 1012.0
20260904035047 65 302 0.0 0.0 0.00 0.00 0.00 1012.0
20260904034533 65 302 0.0 0.0 0.00 0.00 0.00 1012.0
20260904034032 65 302 0.0 0.0 0.00 0.01 0.00 1011.9
20260904033532 65 302 0.0 0.0 0.00 0.01 0.00 1012.0
20260904033032 65 302 0.0 0.0 0.00 0.01 0.00 1011.9
20260904032532 66 302 0.0 0.0 0.00 0.01 0.00 1011.8
20260904032032 66 302 0.0 0.0 0.00 0.01 0.00 1011.7
20260904031532 66 302 0.0 0.0 0.00 0.01 0.00 1011.9
20260904031034 66 302 0.0 0.0 0.00 0.01 0.00 1011.9
20260904030602 66 302 0.0 0.0 0.00 0.01 0.00 1012.0
20260904030032 66 302 0.0 0.0 0.00 0.01 0.00 1012.1
20260904025533 67 302 0.0 0.0 0.00 0.01 0.00 1012.4
20260904025032 67 302 0.0 0.0 0.00 0.01 0.00 1012.4
20260904024532 67 302 0.0 0.0 0.00 0.01 0.00 1012.5
20260904024032 67 302 0.0 0.0 0.00 0.01 0.00 1012.5
20260904023532 67 302 0.0 0.0 0.00 0.01 0.00 1012.5
20260904023032 68 302 0.0 0.0 0.00 0.01 0.00 1012.7
20260904022533 68 302 0.0 0.0 0.00 0.01 0.00 1012.8
20260904022032 68 302 0.0 0.0 0.00 0.01 0.00 1012.9
20260904021532 68 302 0.0 0.0 0.00 0.01 0.00 1012.9
20260904021032 68 302 0.0 0.0 0.00 0.01 0.00 1012.8
20260904020532 68 302 0.0 0.0 0.00 0.01 0.00 1012.8
20260904020032 69 302 0.0 0.0 0.00 0.01 0.00 1012.7
20260904015602 69 302 0.0 0.0 0.00 0.01 0.00 1012.7
20260904015032 69 302 0.0 0.0 0.00 0.01 0.00 1012.8
20260904014532 69 302 0.0 0.0 0.00 0.01 0.00 1012.8
20260904014033 69 302 0.0 0.0 0.00 0.01 0.00 1012.7
20260904013532 69 302 0.0 0.0 0.00 0.01 0.00 1012.7
20260904013032 69 302 0.0 0.0 0.00 0.01 0.00 1012.7
20260904012532 70 302 0.0 0.0 0.00 0.01 0.00 1012.7
20260904012117 70 302 0.0 0.0 0.00 0.01 0.00 1012.6
20260904011532 70 302 0.0 0.0 0.00 0.01 0.00 1012.6
20260904011032 70 302 0.0 0.0 0.00 0.01 0.00 1012.5
20260904010532 70 302 0.0 0.0 0.00 0.01 0.00 1012.7
20260904005532 71 302 0.0 0.0 0.00 0.01 0.00 1012.6
20260904005032 71 302 0.0 2.0 0.00 0.01 0.00 1012.6
20260904004532 71 302 0.0 2.0 0.00 0.01 0.00 1012.7
20260904004032 71 302 0.0 0.0 0.00 0.01 0.00 1012.8
20260904003502 71 302 0.0 0.0 0.00 0.01 0.00 1012.8
20260904003032 71 302 0.0 6.0 0.00 0.01 0.00 1012.8
20260904002532 71 302 0.0 6.0 0.00 0.01 0.00 1012.6
20260904002047 71 302 0.0 5.0 0.00 0.01 0.00 1012.5
20260904001532 71 302 0.0 0.0 0.00 0.01 0.00 1012.6
20260904001032 72 302 0.0 2.0 0.00 0.01 0.00 1012.3
20260904000532 72 302 0.0 2.0 0.00 0.01 0.00 1012.2
20260903235532 72 302 0.0 0.0 0.00 0.01 0.00 1012.1
20260903235002 72 302 0.0 3.0 0.00 0.01 0.00 1012.1
20260903234532 72 302 0.0 3.0 0.00 0.01 0.00 1011.8
20260903234032 73 302 0.0 2.0 0.00 0.01 0.00 1011.9
20260903233532 73 302 0.0 0.0 0.00 0.01 0.00 1011.8
20260903233102 73 302 0.0 3.0 0.00 0.01 0.00 1011.9
20260903232532 73 302 0.0 3.0 0.00 0.01 0.00 1011.9
20260903232032 73 302 0.0 3.0 0.00 0.01 0.00 1011.8
20260903231532 74 302 0.0 0.0 0.00 0.01 0.00 1011.8
20260903231032 74 302 0.0 0.0 0.00 0.01 0.00 1011.8
20260903230532 74 302 0.0 0.0 0.00 0.01 0.00 1011.7
20260903230032 75 302 0.0 0.0 0.00 0.01 0.00 1012.0
20260903225532 75 302 0.0 2.0 0.00 0.01 0.00 1011.9
20260903225032 75 302 0.0 2.0 0.00 0.01 0.00 1011.9
20260903224532 76 302 0.0 0.0 0.00 0.01 0.00 1012.0
20260903224047 76 302 0.0 0.0 0.00 0.01 0.00 1011.8
20260903223547 77 302 0.0 0.0 0.00 0.01 0.00 1011.9
20260903223032 77 302 0.0 0.0 0.00 0.01 0.00 1011.9
20260903222532 78 302 0.0 0.0 0.00 0.01 0.00 1012.0
20260903222033 78 302 0.0 0.0 0.00 0.01 0.00 1011.9
20260903221532 78 302 0.0 0.0 0.00 0.01 0.00 1012.0
20260903221032 79 302 0.0 0.0 0.00 0.01 0.00 1011.8
20260903220532 80 302 0.0 0.0 0.00 0.01 0.00 1011.9
20260903220032 80 302 0.0 5.0 0.00 0.01 0.00 1011.9
20260903215532 81 302 0.0 9.0 0.00 0.01 0.00 1011.7
20260903215032 82 302 0.0 9.0 0.00 0.01 0.00 1011.6
20260903214532 82 259 0.0 5.0 0.00 0.01 0.00 1011.4
20260903214047 82 258 0.0 5.0 0.00 0.01 0.00 1011.6
20260903213532 82 253 0.0 6.0 0.00 0.01 0.00 1011.5
20260903213033 82 243 0.0 8.0 0.00 0.01 0.00 1011.6
20260903212532 83 288 2.0 9.0 0.00 0.01 0.00 1011.8
20260903212033 83 269 0.0 9.0 0.00 0.01 0.00 1011.8
20260903211602 83 275 0.0 5.0 0.00 0.01 0.00 1011.8
20260903211033 83 214 0.0 9.0 0.00 0.01 0.00 1011.8
20260903210532 83 302 0.0 13.0 0.00 0.01 0.00 1011.8
20260903210033 83 265 3.0 13.0 0.00 0.01 0.00 1011.9
20260903205533 83 292 9.0 13.0 0.00 0.01 0.00 1012.0
20260903205032 83 284 7.0 11.0 0.00 0.01 0.00 1012.0
20260903204532 83 223 1.0 11.0 0.00 0.01 0.00 1011.9
20260903204047 83 291 3.0 8.0 0.00 0.01 0.00 1011.8
20260903203547 83 277 3.0 13.0 0.00 0.01 0.00 1011.9
20260903203032 83 299 1.0 13.0 0.00 0.01 0.00 1011.7
20260903202532 83 274 5.0 14.0 0.00 0.01 0.00 1011.8
20260903202047 83 271 5.0 14.0 0.00 0.01 0.00 1011.9
20260903201603 82 299 6.0 11.0 0.00 0.01 0.00 1011.6
20260903201032 82 284 0.0 11.0 0.00 0.01 0.00 1011.6
20260903200532 82 259 0.0 17.0 0.00 0.01 0.00 1011.7
20260903200032 82 290 3.0 17.0 0.00 0.01 0.00 1011.7
20260903195533 82 282 0.0 9.0 0.00 0.01 0.00 1011.5
20260903195032 82 294 5.0 9.0 0.00 0.01 0.00 1011.5
20260903194532 82 288 3.0 9.0 0.00 0.01 0.00 1011.9
20260903194032 81 275 3.0 8.0 0.00 0.01 0.00 1012.0
20260903193532 81 285 3.0 6.0 0.00 0.01 0.00 1012.0
20260903193032 81 288 0.0 6.0 0.00 0.01 0.00 1011.8
20260903192532 81 277 2.0 5.0 0.00 0.01 0.00 1011.9
20260903192032 81 276 0.0 6.0 0.00 0.01 0.00 1012.1
20260903191532 81 258 2.0 6.0 0.00 0.01 0.00 1011.9
20260903191032 81 280 2.0 6.0 0.00 0.01 0.00 1012.1
20260903190532 81 345 0.0 8.0 0.00 0.01 0.00 1012.1
20260903190032 81 268 1.0 8.0 0.00 0.01 0.00 1012.4
20260903185547 80 278 3.0 9.0 0.00 0.01 0.00 1012.4
20260903185033 80 291 1.0 9.0 0.00 0.01 0.00 1012.4
20260903184532 79 266 0.0 9.0 0.00 0.01 0.00 1012.4
20260903184032 79 266 0.0 13.0 0.00 0.01 0.00 1012.4
20260903183532 79 283 7.0 13.0 0.00 0.01 0.00 1012.5
20260903183032 79 264 3.0 9.0 0.00 0.01 0.00 1012.5
20260903182547 78 159 0.0 6.0 0.00 0.01 0.00 1012.5
20260903182031 78 184 3.0 6.0 0.00 0.01 0.00 1012.5
20260903181532 77 205 1.0 6.0 0.00 0.01 0.00 1012.5
20260903181031 77 151 0.0 5.0 0.00 0.02 0.00 1012.6
20260903180531 77 151 0.0 5.0 0.00 0.08 0.00 1012.7
20260903180031 76 151 0.0 5.0 0.00 0.08 0.00 1012.6
20260903175531 76 151 0.0 6.0 0.00 0.08 0.00 1012.7
20260903175031 76 151 2.0 6.0 0.00 0.08 0.00 1012.7
20260903174532 76 317 0.0 5.0 0.00 0.08 0.00 1012.8
20260903174032 75 317 0.0 5.0 0.00 0.08 0.00 1012.8
20260903173531 75 317 0.0 3.0 0.00 0.08 0.00 1013.1
20260903173031 75 317 1.0 3.0 0.00 0.08 0.00 1013.0
20260903172531 75 317 0.0 2.0 0.00 0.08 0.00 1013.1
20260903172101 75 317 0.0 3.0 0.00 0.08 0.00 1013.1
20260903171534 75 317 0.0 5.0 0.00 0.08 0.00 1013.1